• En España
  • Lista de países
  • Para 7 días
  • Temperatura del agua
  • Mapa Satelital
  • El tiempo en el mapa
  • Informadores
  • user-avatar
    Iniciar sesión

    Tiempo cada hora Kovyrkova Gora

    Hoy, 28 Mayo, Lunes

    Tiempo Temperatura Precipitaciones Viento Presión Humedad
    00:00 +9°C° 0 mm 3 mps 756 mmHg 48%
    01:00 +8°C° 0 mm 2 mps 757 mmHg 51%
    02:00 +7°C° 0 mm 2 mps 758 mmHg 54%
    03:00 +7°C° 0 mm 2 mps 758 mmHg 54%
    04:00 +7°C° 0 mm 2 mps 759 mmHg 54%
    05:00 +8°C° 0 mm 2 mps 759 mmHg 54%
    06:00 +9°C° 0 mm 2 mps 759 mmHg 49%
    07:00 +12°C° 0 mm 2 mps 760 mmHg 44%
    08:00 +14°C° 0 mm 2 mps 760 mmHg 39%
    09:00 +15°C° 0 mm 2 mps 760 mmHg 36%
    10:00 +16°C° 0 mm 2 mps 760 mmHg 33%
    11:00 +17°C° 0 mm 2 mps 760 mmHg 30%
    12:00 +18°C° 0 mm 2 mps 760 mmHg 30%
    13:00 +19°C° 0 mm 2 mps 760 mmHg 29%
    14:00 +19°C° 0 mm 2 mps 760 mmHg 29%
    15:00 +19°C° 0 mm 2 mps 759 mmHg 31%
    16:00 +20°C° 0 mm 1 mps 759 mmHg 32%
    17:00 +20°C° 0 mm 1 mps 759 mmHg 34%
    18:00 +18°C° 0 mm 1 mps 759 mmHg 41%
    19:00 +15°C° 0 mm 1 mps 758 mmHg 48%
    20:00 +13°C° 0 mm 1 mps 758 mmHg 55%
    21:00 +12°C° 0 mm 1 mps 759 mmHg 56%
    22:00 +11°C° 0 mm 1 mps 759 mmHg 57%
    23:00 +10°C° 0 mm 2 mps 759 mmHg 58%

    Mañana, 29 Mayo, Martes

    Tiempo Temperatura Precipitaciones Viento Presión Humedad
    00:00 +9°C° 0 mm 2 mps 759 mmHg 60%
    01:00 +9°C° 0 mm 2 mps 759 mmHg 62%
    02:00 +8°C° 0 mm 2 mps 759 mmHg 63%
    03:00 +9°C° 0 mm 2 mps 759 mmHg 62%
    04:00 +10°C° 0 mm 2 mps 758 mmHg 61%
    05:00 +11°C° 0 mm 3 mps 758 mmHg 60%
    06:00 +13°C° 0 mm 3 mps 758 mmHg 55%
    07:00 +16°C° 0 mm 3 mps 758 mmHg 50%
    08:00 +18°C° 0 mm 3 mps 757 mmHg 45%
    09:00 +19°C° 0 mm 4 mps 757 mmHg 41%
    10:00 +21°C° 0 mm 4 mps 756 mmHg 38%
    11:00 +22°C° 0 mm 4 mps 755 mmHg 35%
    12:00 +23°C° 0 mm 4 mps 755 mmHg 35%
    13:00 +23°C° 0 mm 4 mps 754 mmHg 34%
    14:00 +25°C° 0 mm 4 mps 753 mmHg 34%
    15:00 +23°C° 0 mm 4 mps 752 mmHg 37%
    16:00 +23°C° 0 mm 4 mps 752 mmHg 40%
    17:00 +24°C° 0 mm 3 mps 751 mmHg 43%
    18:00 +21°C° 0 mm 3 mps 750 mmHg 51%
    19:00 +19°C° 0 mm 3 mps 750 mmHg 60%
    20:00 +17°C° 0 mm 2 mps 749 mmHg 69%
    21:00 +17°C° 0 mm 3 mps 749 mmHg 72%
    22:00 +16°C° 0 mm 3 mps 748 mmHg 75%
    23:00 +16°C° 0 mm 3 mps 748 mmHg 79%

    Pasado mañana, 30 Mayo, Miércoles

    Tiempo Temperatura Precipitaciones Viento Presión Humedad
    00:00 +14°C° 0 mm 3 mps 748 mmHg 79%
    01:00 +14°C° 0 mm 3 mps 747 mmHg 79%
    02:00 +13°C° 0 mm 3 mps 747 mmHg 80%
    03:00 +13°C° 0 mm 4 mps 746 mmHg 76%
    04:00 +14°C° 0 mm 4 mps 746 mmHg 72%
    05:00 +14°C° 0 mm 4 mps 745 mmHg 68%
    06:00 +16°C° 0 mm 5 mps 745 mmHg 62%
    07:00 +19°C° 0 mm 5 mps 744 mmHg 56%
    08:00 +20°C° 0 mm 5 mps 743 mmHg 50%
    09:00 +22°C° 0 mm 6 mps 743 mmHg 47%
    10:00 +23°C° 0 mm 6 mps 743 mmHg 43%
    11:00 +24°C° 0 mm 7 mps 742 mmHg 40%
    12:00 +24°C° 0 mm 7 mps 742 mmHg 38%
    13:00 +24°C° 0 mm 7 mps 742 mmHg 37%
    14:00 +26°C° 0 mm 7 mps 741 mmHg 35%
    15:00 +23°C° 0 mm 6 mps 741 mmHg 37%
    16:00 +22°C° 0 mm 6 mps 741 mmHg 39%
    17:00 +20°C° 0 mm 5 mps 742 mmHg 41%
    18:00 +18°C° 0 mm 4 mps 742 mmHg 46%
    19:00 +16°C° 0 mm 3 mps 742 mmHg 51%
    20:00 +13°C° 0 mm 3 mps 743 mmHg 56%
    21:00 +13°C° 0 mm 2 mps 743 mmHg 60%
    22:00 +12°C° 0 mm 2 mps 744 mmHg 63%
    23:00 +9°C° 0 mm 2 mps 744 mmHg 67%

    31 Mayo, Jueves

    Tiempo Temperatura Precipitaciones Viento Presión Humedad
    00:00 +9°C° 0 mm 3 mps 745 mmHg 69%
    01:00 +8°C° 0 mm 3 mps 745 mmHg 71%
    02:00 +8°C° 0 mm 3 mps 746 mmHg 73%
    03:00 +7°C° 0 mm 4 mps 746 mmHg 68%
    04:00 +6°C° 0 mm 4 mps 747 mmHg 63%
    05:00 +6°C° 0 mm 4 mps 747 mmHg 58%
    06:00 +7°C° 0 mm 4 mps 747 mmHg 53%
    07:00 +8°C° 0 mm 4 mps 748 mmHg 49%
    08:00 +8°C° 0 mm 4 mps 748 mmHg 45%
    09:00 +10°C° 0 mm 4 mps 749 mmHg 42%
    10:00 +11°C° 0 mm 4 mps 749 mmHg 38%
    11:00 +12°C° 0 mm 4 mps 749 mmHg 35%
    12:00 +12°C° 0 mm 4 mps 749 mmHg 34%
    13:00 +13°C° 0 mm 4 mps 749 mmHg 33%
    14:00 +13°C° 0 mm 4 mps 750 mmHg 31%
    15:00 +13°C° 0 mm 4 mps 750 mmHg 32%
    16:00 +13°C° 0 mm 4 mps 750 mmHg 34%
    17:00 +12°C° 0 mm 4 mps 750 mmHg 35%
    18:00 +11°C° 0 mm 3 mps 750 mmHg 41%
    19:00 +9°C° 0 mm 3 mps 751 mmHg 47%
    20:00 +8°C° 0 mm 2 mps 751 mmHg 53%
    21:00 +6°C° 0 mm 2 mps 752 mmHg 54%
    22:00 +5°C° 0 mm 2 mps 752 mmHg 56%
    23:00 +3°C° 0 mm 3 mps 753 mmHg 58%

    1 Junio, Viernes

    Tiempo Temperatura Precipitaciones Viento Presión Humedad
    00:00 +4°C° 0 mm 2 mps 753 mmHg 61%
    01:00 +3°C° 0 mm 2 mps 753 mmHg 63%
    02:00 +2°C° 0 mm 2 mps 754 mmHg 66%
    03:00 +3°C° 0 mm 2 mps 754 mmHg 65%
    04:00 +2°C° 0 mm 3 mps 754 mmHg 63%
    05:00 +3°C° 0 mm 3 mps 755 mmHg 61%
    06:00 +4°C° 0 mm 3 mps 755 mmHg 56%
    07:00 +7°C° 0 mm 3 mps 755 mmHg 51%
    08:00 +8°C° 0 mm 3 mps 755 mmHg 45%
    09:00 +9°C° 0 mm 3 mps 755 mmHg 42%
    10:00 +10°C° 0 mm 3 mps 755 mmHg 40%
    11:00 +11°C° 0 mm 3 mps 755 mmHg 37%
    12:00 +12°C° 0 mm 3 mps 755 mmHg 35%
    13:00 +13°C° 0 mm 3 mps 754 mmHg 33%
    14:00 +14°C° 0 mm 3 mps 754 mmHg 32%
    15:00 +15°C° 0 mm 2 mps 754 mmHg 32%
    16:00 +15°C° 0 mm 2 mps 754 mmHg 33%
    17:00 +15°C° 0 mm 2 mps 754 mmHg 33%
    18:00 +13°C° 0 mm 1 mps 754 mmHg 41%
    19:00 +11°C° 0 mm 1 mps 754 mmHg 49%
    20:00 +8°C° 0 mm 0 mps 754 mmHg 56%
    21:00 +7°C° 0 mm 0 mps 755 mmHg 58%
    22:00 +7°C° 0 mm 1 mps 755 mmHg 60%
    23:00 +6°C° 0 mm 1 mps 755 mmHg 62%

    2 Junio, Sábado

    Tiempo Temperatura Precipitaciones Viento Presión Humedad
    00:00 +5°C° 0 mm 1 mps 755 mmHg 63%
    01:00 +5°C° 0 mm 1 mps 755 mmHg 65%
    02:00 +5°C° 0 mm 1 mps 755 mmHg 67%
    03:00 +6°C° 0 mm 1 mps 756 mmHg 65%
    04:00 +7°C° 0 mm 1 mps 756 mmHg 63%
    05:00 +8°C° 0 mm 1 mps 756 mmHg 61%
    06:00 +10°C° 0 mm 1 mps 756 mmHg 54%
    07:00 +13°C° 0 mm 1 mps 756 mmHg 48%
    08:00 +15°C° 0 mm 1 mps 756 mmHg 41%
    09:00 +16°C° 0 mm 1 mps 755 mmHg 38%
    10:00 +19°C° 0 mm 1 mps 755 mmHg 35%
    11:00 +19°C° 0 mm 2 mps 755 mmHg 32%
    12:00 +19°C° 0 mm 2 mps 754 mmHg 31%
    13:00 +20°C° 0 mm 2 mps 754 mmHg 31%
    14:00 +20°C° 0 mm 2 mps 753 mmHg 31%
    15:00 +20°C° 0 mm 2 mps 753 mmHg 33%
    16:00 +20°C° 0 mm 2 mps 752 mmHg 35%
    17:00 +20°C° 0 mm 2 mps 752 mmHg 38%
    18:00 +18°C° 0 mm 2 mps 752 mmHg 46%
    19:00 +16°C° 0 mm 2 mps 751 mmHg 54%
    20:00 +14°C° 0 mm 2 mps 751 mmHg 62%
    21:00 +13°C° 0 mm 2 mps 751 mmHg 63%
    22:00 +12°C° 0 mm 2 mps 751 mmHg 65%
    23:00 +10°C° 0 mm 2 mps 751 mmHg 66%
    Mostrar más